This is the latest recevied weather packets stored in our database for station/object KY4EF. If no packets are shown the sender has not sent any weather packets the latest 10 day(s).
| Time | Temp. | Humidity | Pressure | Rain* | Wind** | Luminosity | Snow |
|---|---|---|---|---|---|---|---|
| 1778014466 | 25° C | 38% | 1011.8 hPa | 0 mm | - | 449 W/m² | - |
| 1778014162 | 25° C | 38% | 1011.5 hPa | 0 mm | - | 460 W/m² | - |
| 1778013860 | 25.56° C | 41% | 1011.4 hPa | 0 mm | - | 467 W/m² | - |
| 1778013557 | 25° C | 38% | 1011.6 hPa | 0 mm | - | 494 W/m² | - |
| 1778013254 | 26.67° C | 35% | 1011.8 hPa | 0 mm | - | 498 W/m² | - |
| 1778012950 | 26.11° C | 33% | 1011.8 hPa | 0 mm | - | 540 W/m² | - |
| 1778012646 | 26.11° C | 35% | 1012 hPa | 0 mm | - | 491 W/m² | - |
| 1778012343 | 25.56° C | 34% | 1011.7 hPa | 0 mm | - | 521 W/m² | - |
| 1778012040 | 25° C | 36% | 1011.8 hPa | 0 mm | - | 444 W/m² | - |
| 1778011738 | 25° C | 35% | 1012 hPa | 0 mm | - | 433 W/m² | - |
| 1778011435 | 27.22° C | 32% | 1011.9 hPa | 0 mm | - | 437 W/m² | - |
| 1778011130 | 27.22° C | 33% | 1012 hPa | 0 mm | - | 465 W/m² | - |
| 1778010828 | 26.11° C | 33% | 1011.9 hPa | 0 mm | - | 511 W/m² | - |
| 1778010525 | 26.11° C | 32% | 1012.2 hPa | 0 mm | - | 517 W/m² | - |
| 1778010222 | 26.11° C | 32% | 1012 hPa | 0 mm | - | 608 W/m² | - |
| 1778009917 | 26.11° C | 35% | 1012.3 hPa | 0 mm | - | 663 W/m² | - |
| 1778009616 | 25.56° C | 33% | 1012.5 hPa | 0 mm | - | 682 W/m² | - |
| 1778009313 | 25.56° C | 31% | 1012.6 hPa | 0 mm | - | 265 W/m² | - |
| 1778009011 | 25.56° C | 33% | 1012.8 hPa | 0 mm | - | 291 W/m² | - |
| 1778008709 | 25.56° C | 36% | 1012.8 hPa | 0 mm | - | 461 W/m² | - |
| 1778008407 | 26.67° C | 34% | 1012.9 hPa | 0 mm | - | 489 W/m² | - |
| 1778008103 | 25.56° C | 33% | 1012.8 hPa | 0 mm | - | 563 W/m² | - |
| 1778007799 | 26.67° C | 33% | 1013 hPa | 0 mm | - | 521 W/m² | - |
| 1778007495 | 26.11° C | 36% | 1012.9 hPa | 0 mm | - | 566 W/m² | - |
| 1778007191 | 26.11° C | 34% | 1013.1 hPa | 0 mm | - | 593 W/m² | - |
* Rain latest hour (hover to see other rain measurements)
** Current wind speed in m/s (hover to see current wind gust speed)